Regional Weather Roundup
Issued by NWS

Home | Current Version | Previous Version | Graphics & Text | Print | Product List | Glossary Off
Versions: 1 2 3 4 5 6 7 8 9 10 11 12 13 14 15 16 17 18 19 20 21 22 23 24 25 26 27 28 29 30 31 32 33 34 35 36 37 38 39 40 41 42 43 44 45 46 47 48 49 50

000
ASUS43 KFSD 212002
RWRSD

WEATHER ROUNDUP FOR SOUTH DAKOTA
NATIONAL WEATHER SERVICE SIOUX FALLS SD
300 PM CDT SAT OCT 21 2017

NOTE: "FAIR" INDICATES FEW OR NO CLOUDS BELOW 12,000 FEET WITH NO
SIGNIFICANT WEATHER AND/OR OBSTRUCTIONS TO VISIBILITY.


SDZ001>005-009-010-012>017-212100-
NORTHWEST AND NORTH CENTRAL SOUTH DAKOTA

CITY           SKY/WX    TMP DP  RH WIND       PRES   REMARKS
BUFFALO          N/A     54  24  31 W37G49    29.71R
MOBRIDGE       CLOUDY    54  39  57 NW17G28   29.67S
$$

SDZ012>016-024>037-041>051-057-063-072>074-212100-
SOUTHWEST AND SOUTH CENTRAL SOUTH DAKOTA

CITY           SKY/WX    TMP DP  RH WIND       PRES   REMARKS
RAPID CTY ARPT SUNNY     58  20  22 NW23G35   29.83R
PIERRE         CLOUDY    53  38  56 W16G28    29.75S
CUSTER         LGT RAIN  46  14  27 W17G35    29.87S
ELLSWORTH AFB  SUNNY     57  21  25 NW24G35   29.81S
PHILIP         PTSUNNY   58  29  33 NW28G40   29.79F
PINE RIDGE     MOSUNNY   58  19  22 NW23G30   29.86S
SPEARFISH      FAIR      52  21  30 NW22G32   29.85S
WINNER         FAIR      57  38  48 NW21      29.81R
$$

SDZ004>011-016>023-039-040-212100-
NORTHEAST SOUTH DAKOTA

CITY           SKY/WX    TMP DP  RH WIND       PRES   REMARKS
ABERDEEN       CLOUDY    51  42  71 W15       29.67R
WATERTOWN      CLOUDY    55  43  63 W24G33    29.64R
BROOKINGS      CLOUDY    56  43  61 W24G30    29.66R
SISSETON         N/A     60  46  59 W17       29.58R
$$

SDZ017-020-022-023-036>040-048>070-212100-
SOUTHEAST SOUTH DAKOTA

CITY           SKY/WX    TMP DP  RH WIND       PRES   REMARKS
SIOUX FALLS    CLOUDY    58  44  60 NW21G30   29.70R
HURON          LGT RAIN  50  42  74 NW18      29.73R
CHAMBERLAIN    CLOUDY    53  43  67 W12       29.78S
MITCHELL       CLOUDY    52  40  63 W18G26    29.76R
YANKTON        CLOUDY    54  40  59 W29G35    29.76R
$$

ABBREVIATIONS USED IN REMARKS
   TC - TEMPERATURE IN CELSIUS
  WCI - WIND CHILL INDEX
   HX - HEAT INDEX
  VSB - VISIBILITY





USA.gov is the U.S. government's official web portal to all federal, state and local government web resources and services.